Weather History for Dover AFB, DE

Change the Weather History Date:

Thursday, October 11, 2012

  Actual Average Record
Temperature  
Mean Temperature 52 °F -  
Max Temperature 60 °F 68 °F 86 °F (1949)
Min Temperature 44 °F 48 °F 32 °F (1979)
Degree Days  
Heating Degree Days 13    
Growing Degree Days 2 (Base 50)    
Moisture  
Dew Point 36 °F    
Average Humidity 55    
Maximum Humidity 76    
Minimum Humidity 38    
Precipitation  
Precipitation 0.00 in - - ()
Sea Level Pressure  
Sea Level Pressure 30.19 in    
Wind  
Wind Speed 8 mph (West)    
Max Wind Speed 14 mph    
Max Gust Speed 17 mph    
Visibility 10 miles    
Events      
Averages and records for this station are not official NWS values.
T = Trace of Precipitation, MM = Missing Value Source: NWS Daily Summary

Daily Weather History Graph

Daily Weather History Graph

Search for Another Location

Airport:

Trip Planner

Search our weather history database for the weather conditions in past years. The results will help you decide how hot, cold, wet, or windy it might be!

Date:

Astronomy

Oct. 11, 2012 Rise Set
Actual Time 7:07 AM EDT 6:28 PM EDT
Civil Twilight 6:41 AM EDT 6:55 PM EDT
Nautical Twilight 6:10 AM EDT 7:26 PM EDT
Astronomical Twilight 5:39 AM EDT 7:57 PM EDT
Moon 2:45 AM EDT (10/11) 4:02 PM EDT (10/11)
Length of Visible Light 12h 14m
Length of Day
11h 20m
Waning Crescent, 18% of the Moon is Illuminated
Oct 11
Waning Crescent
Oct 15
New
Oct 21
First Quarter
Oct 29
Full
Nov 6
Last Quarter

Hourly Weather History & Observations

Time (EDT) Temp. Windchill Dew Point Humidity Pressure Visibility Wind Dir Wind Speed Gust Speed Precip Events Conditions
12:55 AM 54.0 °F - 39.2 °F 57% 30.06 in 10.0 mi WNW 9.2 mph - N/A   Clear
1:55 AM 53.4 °F - 36.1 °F 52% 30.08 in 10.0 mi WNW 9.2 mph - N/A   Clear
2:55 AM 50.5 °F - 38.7 °F 64% 30.10 in 10.0 mi West 6.9 mph - N/A   Clear
3:55 AM 51.3 °F - 34.9 °F 54% 30.12 in 10.0 mi West 8.1 mph - N/A   Clear
4:55 AM 49.5 °F - 35.2 °F 58% 30.15 in 10.0 mi West 5.8 mph - N/A   Clear
5:55 AM 46.8 °F - 35.4 °F 65% 30.18 in 10.0 mi WNW 5.8 mph - N/A   Clear
6:55 AM 44.8 °F 41.0 °F 35.8 °F 71% 30.20 in 10.0 mi WNW 6.9 mph - N/A   Clear
7:55 AM 46.4 °F 42.4 °F 38.3 °F 73% 30.22 in 10.0 mi NW 8.1 mph - N/A   Clear
8:55 AM 50.5 °F - 36.3 °F 58% 30.25 in 10.0 mi NW 12.7 mph - N/A   Clear
9:55 AM 52.7 °F - 35.8 °F 53% 30.26 in 10.0 mi WNW 13.8 mph - N/A   Clear
10:55 AM 54.5 °F - 35.1 °F 48% 30.27 in 10.0 mi NNW 9.2 mph 17.3 mph N/A   Clear
11:55 AM 55.8 °F - 34.3 °F 44% 30.26 in 10.0 mi WNW 9.2 mph - N/A   Clear
12:55 PM 57.9 °F - 35.4 °F 43% 30.24 in 10.0 mi West 9.2 mph - N/A   Clear
1:55 PM 59.0 °F - 35.6 °F 42% 30.22 in 10.0 mi SW 8.1 mph - N/A   Clear
2:55 PM 59.9 °F - 34.3 °F 38% 30.22 in 10.0 mi West 8.1 mph - N/A   Clear
3:55 PM 60.3 °F - 35.1 °F 39% 30.20 in 10.0 mi Calm Calm - N/A   Clear
4:55 PM 60.3 °F - 35.2 °F 39% 30.19 in 10.0 mi WSW 8.1 mph - N/A   Clear
5:55 PM 57.9 °F - 35.8 °F 44% 30.20 in 10.0 mi SW 8.1 mph - N/A   Clear
6:55 PM 53.2 °F - 35.1 °F 50% 30.21 in 10.0 mi WSW 6.9 mph - N/A   Clear
7:55 PM 50.9 °F - 36.7 °F 58% 30.21 in 10.0 mi SSW 5.8 mph - N/A   Clear
8:55 PM 49.8 °F - 37.4 °F 62% 30.21 in 10.0 mi SSW 5.8 mph - N/A   Clear
9:55 PM 48.0 °F - 37.6 °F 67% 30.22 in 10.0 mi South 5.8 mph - N/A   Clear
10:55 PM 46.2 °F 44.1 °F 38.5 °F 74% 30.21 in 10.0 mi SSW 4.6 mph - N/A   Clear
11:55 PM 46.0 °F 43.9 °F 38.8 °F 76% 30.20 in 10.0 mi South 4.6 mph - N/A   Clear